Location: Clyde
(45.1830°S, 169.3170°E)
Time: 14:12:02
(UTC+13:00)

Cosmos 1340 Rocket - Pass Details

Date: 24 January 2019
Orbit: 529 x 559 km, 81.2° (Epoch: 13 October)

Event Time Altitude Azimuth Distance (km) Brightness Sun altitude
Exits shadow 23:46:48 40° 81° (E) 807 3.3 -19.3°
Maximum altitude 23:46:55 40° 86° (E) 806 3.3 -19.3°
Drops below altitude 10° 23:50:42 10° 155° (SSE) 1,832 5.9 -19.7°
Sets 23:52:58 0° 162° (SSE) 2,739 7.0 -19.9°
